Weather History for KMSO - December, 2014

Change the Weather History Date:

Tuesday, December 23, 2014

  Actual Average Record
Temperature  
Mean Temperature 30 °F 23 °F  
Max Temperature 35 °F 30 °F 54 °F (1936)
Min Temperature 24 °F 16 °F -30 °F (1983)
Degree Days  
Heating Degree Days 35 42  
Month to date heating degree days 815 940  
Since 1 July heating degree days 2571 2836  
Cooling Degree Days 0 0  
Month to date cooling degree days 0 0  
Year to date cooling degree days 390 332  
Moisture  
Dew Point 24 °F    
Average Humidity 72    
Maximum Humidity 88    
Minimum Humidity 56    
Precipitation  
Precipitation T in 0.04 in 1.40 in (1917)
Month to date precipitation 0.74 0.78  
Year to date precipitation 15.09 13.87  
Snow  
Snow T in - - ()
Month to date snowfall 2.5  
Year to date snowfall 64.4  
Since 1 July snowfall 12.5  
Snow Depth 0.00 in    
Sea Level Pressure  
Sea Level Pressure 30.34 in    
Wind  
Wind Speed 2 mph (ENE)    
Max Wind Speed 9 mph    
Max Gust Speed 11 mph    
Visibility 10 miles    
Events      
T = Trace of Precipitation, MM = Missing Value Source: NWS Daily Summary

Daily Weather History Graph

Daily Weather History Graph

Search for Another Location

Airport or City:

Trip Planner

Search our weather history database for the weather conditions in past years. The results will help you decide how hot, cold, wet, or windy it might be!

Date:

Astronomy

Dec. 23, 2014 Rise Set
Actual Time 8:19 AM MST 4:51 PM MST
Civil Twilight 7:44 AM MST 5:26 PM MST
Nautical Twilight 7:05 AM MST 6:05 PM MST
Astronomical Twilight 6:28 AM MST 6:42 PM MST
Moon 9:20 AM MST (12/23) 7:19 PM MST (12/23)
Length of Visible Light 9h 42m
Length of Day
8h 31m
Waxing Crescent, 4% of the Moon is Illuminated
Dec 23
Waxing Crescent
Dec 28
First Quarter
Jan 4
Full
Jan 13
Last Quarter
Jan 20
New

Hourly Weather History & Observations

Time (MST) Temp. Windchill Dew Point Humidity Pressure Visibility Wind Dir Wind Speed Gust Speed Precip Events Conditions
12:53 AM 32.0 °F - 25.0 °F 75% 30.38 in 10.0 mi Calm Calm - N/A   Overcast
1:53 AM 30.9 °F 27.5 °F 25.0 °F 79% 30.39 in 10.0 mi East 3.5 mph - N/A   Overcast
2:53 AM 30.0 °F - 25.0 °F 82% 30.41 in 10.0 mi Calm Calm - N/A   Mostly Cloudy
3:53 AM 28.9 °F 25.2 °F 21.9 °F 75% 30.42 in 10.0 mi ENE 3.5 mph - N/A   Partly Cloudy
4:53 AM 27.0 °F 23.0 °F 21.9 °F 81% 30.43 in 10.0 mi North 3.5 mph - N/A   Clear
5:53 AM 27.0 °F 20.5 °F 21.9 °F 81% 30.43 in 10.0 mi SW 5.8 mph - N/A   Clear
6:53 AM 25.0 °F - 21.0 °F 85% 30.45 in 10.0 mi Calm Calm - N/A   Clear
7:53 AM 27.0 °F - 21.9 °F 81% 30.44 in 10.0 mi Calm Calm - N/A   Overcast
8:53 AM 27.0 °F - 23.0 °F 85% 30.45 in 10.0 mi Calm Calm - N/A   Overcast
9:53 AM 30.0 °F 23.2 °F 23.0 °F 75% 30.45 in 10.0 mi East 6.9 mph - N/A   Overcast
10:53 AM 32.0 °F 24.8 °F 24.1 °F 73% 30.45 in 10.0 mi ESE 8.1 mph - N/A   Overcast
11:53 AM 30.9 °F - 26.1 °F 82% 30.43 in 10.0 mi Calm Calm - N/A   Overcast
12:53 PM 34.0 °F 31.0 °F 21.9 °F 61% 30.39 in 10.0 mi SE 3.5 mph - N/A   Overcast
1:53 PM 35.1 °F - 23.0 °F 61% 30.36 in 10.0 mi Calm Calm - N/A   Overcast
2:53 PM 35.1 °F - 21.9 °F 59% 30.35 in 10.0 mi Calm Calm - N/A   Overcast
3:53 PM 34.0 °F 31.0 °F 25.0 °F 70% 30.32 in 10.0 mi West 3.5 mph - N/A   Overcast
4:53 PM 32.0 °F 28.7 °F 25.0 °F 75% 30.30 in 10.0 mi SW 3.5 mph - N/A   Scattered Clouds
5:53 PM 30.9 °F - 25.0 °F 79% 30.27 in 10.0 mi Calm Calm - N/A   Mostly Cloudy
6:53 PM 30.9 °F 26.2 °F 26.1 °F 82% 30.28 in 10.0 mi WNW 4.6 mph - N/A   Overcast
7:53 PM 30.0 °F - 27.0 °F 88% 30.22 in 10.0 mi Calm Calm - N/A   Overcast
8:53 PM 30.0 °F 25.2 °F 26.1 °F 85% 30.20 in 10.0 mi North 4.6 mph - N/A   Overcast
9:53 PM 30.9 °F - 27.0 °F 85% 30.16 in 10.0 mi Calm Calm - 0.00 in   Overcast
10:53 PM 30.9 °F - 27.0 °F 85% 30.12 in 10.0 mi Calm Calm - N/A   Overcast
11:53 PM 30.9 °F - 27.0 °F 85% 30.09 in 10.0 mi Calm Calm - N/A   Overcast